Location: Newark
(15.4608°S, 41.1635°W)
Time: 10:45:03
(UTC+00:00)

Vanguard 3 - Pass Details

Date: 01 August 2021
Orbit: 510 x 3260 km, 33.3° (Epoch: 22 September)

Event Time Altitude Azimuth Distance (km) Brightness Sun altitude
Rises 02:00:57 0° 340° (NNW) 7,121 12.0 -77.7°
Enters shadow 02:09:06 - 359° (N) 5,954 11.5 -79.6°
Reaches altitude 10° 02:11:30 10° 7° (N) 5,653 - -80.2°
Maximum altitude 02:16:28 12° 24° (NNE) 5,166 - -81.3°
Drops below altitude 10° 02:20:54 10° 42° (NE) 4,960 - -82.4°
Sets 02:28:05 0° 71° (ENE) 5,259 - -84.0°
